sat.trackr.live / text

‹ back to catalog

COSMOS 2545 (760)

NORAD 45358 · 2020-018A

PAYLOAD ACTIVE UNKNOWN

§ Identity

Operator
Country
CIS
Launch date
2020-03-16
Launch site
PLMSC
Launch vehicle
Mass (kg)
RCS (m²)

Purposes: nav

External: N2YO · Heavens-Above · Gunter

§ Orbital elements

Epoch: 2026-05-24T18:16:27.062976Z

Period
675.73 min
Inclination
64.3701°
Eccentricity
0.0007534
Mean motion
2.13102336 rev/d
Perigee alt
19,110.6 km
Apogee alt
19,149.1 km
Semi-major
25,508.0 km
B*
0.0000e+0
RAAN
313.2419°
Arg perigee
232.9765°
Mean anomaly
126.9500°
Rev number
4,816

§ Raw data

COSMOS 2545 (760)1 45358U 20018A   26144.76142434 -.00000050  00000+0  00000+0 0  99982 45358  64.3701 313.2419 0007534 232.9765 126.9500  2.13102336 48167

JSON: /api/v1/satellites/45358 · /tle

For live sub-satellite position, see the globe view (requires WebGL).

§ Visibility from observer

Set your observer location to see the next 7 days of passes ≥ 10°. The values pass through the URL so the page stays shareable.

No JS? Fill the form by hand. The geolocation button needs JavaScript.